Weather History for KYKN - October, 2012

Change the Weather History Date:

Thursday, October 11, 2012

  Actual Average Record
Temperature  
Mean Temperature 44 °F -  
Max Temperature 55 °F 65 °F 88 °F (1974)
Min Temperature 33 °F 38 °F 19 °F (1987)
Degree Days  
Heating Degree Days 21    
Moisture  
Dew Point 28 °F    
Average Humidity 47    
Maximum Humidity 66    
Minimum Humidity 35    
Precipitation  
Precipitation 0.00 in - - ()
Sea Level Pressure  
Sea Level Pressure 30.14 in    
Wind  
Wind Speed 14 mph (North)    
Max Wind Speed 20 mph    
Max Gust Speed 25 mph    
Visibility 10 miles    
Events      
Averages and records for this station are not official NWS values.
T = Trace of Precipitation, MM = Missing Value Source: NWS Daily Summary

Daily Weather History Graph

Daily Weather History Graph

Search for Another Location

Airport or City:

Trip Planner

Search our weather history database for the weather conditions in past years. The results will help you decide how hot, cold, wet, or windy it might be!

Date:

Astronomy

Oct. 11, 2012 Rise Set
Actual Time 7:38 AM CDT 6:52 PM CDT
Civil Twilight 7:10 AM CDT 7:21 PM CDT
Nautical Twilight 6:37 AM CDT 7:53 PM CDT
Astronomical Twilight 6:04 AM CDT 8:26 PM CDT
Moon 3:12 AM CDT (10/11) 4:34 PM CDT (10/11)
Length of Visible Light 12h 10m
Length of Day
11h 13m
Waning Crescent, 18% of the Moon is Illuminated
Oct 11
Waning Crescent
Oct 15
New
Oct 21
First Quarter
Oct 29
Full
Nov 6
Last Quarter

Hourly Weather History & Observations

Time (CDT) Temp. Windchill Dew Point Humidity Pressure Visibility Wind Dir Wind Speed Gust Speed Precip Events Conditions
12:15 AM 55.4 °F - 28.4 °F 36% 29.91 in 10.0 mi SSW 15.0 mph - N/A   Clear
12:35 AM 55.4 °F - 30.2 °F 38% 29.90 in 10.0 mi SSW 15.0 mph - N/A   Clear
12:55 AM 55.4 °F - 28.4 °F 36% 29.90 in 10.0 mi SSW 16.1 mph - N/A   Clear
1:15 AM 55.4 °F - 28.4 °F 36% 29.90 in 10.0 mi SSW 19.6 mph 25.3 mph N/A   Clear
1:35 AM 55.4 °F - 28.4 °F 36% 29.90 in 10.0 mi SSW 17.3 mph 25.3 mph N/A   Clear
1:55 AM 53.6 °F - 28.4 °F 38% 29.89 in 10.0 mi SSW 18.4 mph 24.2 mph N/A   Clear
2:15 AM 53.6 °F - 28.4 °F 38% 29.89 in 10.0 mi SSW 16.1 mph 23.0 mph N/A   Clear
2:55 AM 53.6 °F - 28.4 °F 38% 29.90 in 10.0 mi SSW 16.1 mph 21.9 mph N/A   Clear
3:15 AM 53.6 °F - 28.4 °F 38% 29.90 in 10.0 mi SSW 15.0 mph - N/A   Clear
3:35 AM 51.8 °F - 28.4 °F 41% 29.89 in 10.0 mi SSW 16.1 mph - N/A   Clear
3:55 AM 51.8 °F - 28.4 °F 41% 29.89 in 10.0 mi SSW 12.7 mph - N/A   Clear
4:15 AM 51.8 °F - 28.4 °F 41% 29.90 in 10.0 mi SSW 11.5 mph - N/A   Clear
4:35 AM 51.8 °F - 32.0 °F 47% 29.93 in 10.0 mi West 8.1 mph - N/A   Clear
4:55 AM 51.8 °F - 30.2 °F 44% 29.93 in 10.0 mi WSW 6.9 mph - N/A   Clear
5:15 AM 51.8 °F - 32.0 °F 47% 29.94 in 10.0 mi WSW 11.5 mph - N/A   Clear
5:35 AM 51.8 °F - 30.2 °F 44% 29.94 in 10.0 mi WSW 10.4 mph - N/A   Clear
5:55 AM 51.8 °F - 32.0 °F 47% 29.96 in 10.0 mi West 11.5 mph - N/A   Clear
6:15 AM 48.2 °F - 32.0 °F 54% 29.97 in 10.0 mi NW 11.5 mph - N/A   Clear
6:35 AM 46.4 °F 40.4 °F 30.2 °F 53% 29.98 in 10.0 mi NW 13.8 mph 19.6 mph N/A   Clear
6:55 AM 44.6 °F 38.8 °F 30.2 °F 57% 29.99 in 10.0 mi NW 11.5 mph 19.6 mph N/A   Clear
7:15 AM 44.6 °F 39.2 °F 32.0 °F 61% 30.01 in 10.0 mi NW 10.4 mph - N/A   Clear
7:35 AM 42.8 °F 37.0 °F 32.0 °F 66% 30.03 in 10.0 mi NW 10.4 mph - N/A   Clear
7:55 AM 44.6 °F 38.8 °F 32.0 °F 61% 30.04 in 10.0 mi NNW 11.5 mph - N/A   Clear
8:15 AM 46.4 °F 40.4 °F 33.8 °F 62% 30.06 in 10.0 mi North 13.8 mph 17.3 mph N/A   Clear
8:35 AM 44.6 °F 38.8 °F 32.0 °F 61% 30.09 in 10.0 mi North 11.5 mph 20.7 mph N/A   Clear
8:55 AM 44.6 °F 37.2 °F 32.0 °F 61% 30.11 in 10.0 mi North 17.3 mph - N/A   Clear
9:15 AM 44.6 °F 37.8 °F 32.0 °F 61% 30.11 in 10.0 mi North 15.0 mph 24.2 mph N/A   Clear
9:35 AM 44.6 °F 37.2 °F 33.8 °F 66% 30.13 in 10.0 mi North 17.3 mph 24.2 mph N/A   Clear
9:55 AM 44.6 °F 37.2 °F 33.8 °F 66% 30.13 in 10.0 mi North 17.3 mph 23.0 mph N/A   Clear
10:15 AM 46.4 °F 39.2 °F 32.0 °F 57% 30.15 in 10.0 mi NNE 18.4 mph 24.2 mph N/A   Clear
10:35 AM 46.4 °F 39.2 °F 30.2 °F 53% 30.16 in 10.0 mi NNE 18.4 mph - N/A   Clear
10:55 AM 46.4 °F 39.0 °F 30.2 °F 53% 30.18 in 10.0 mi North 19.6 mph 25.3 mph N/A   Clear
11:15 AM 46.4 °F 39.2 °F 30.2 °F 53% 30.17 in 10.0 mi NNE 18.4 mph 24.2 mph N/A   Clear
11:35 AM 48.2 °F - 30.2 °F 50% 30.19 in 10.0 mi North 18.4 mph 24.2 mph N/A   Clear
11:55 AM 48.2 °F - 30.2 °F 50% 30.20 in 10.0 mi North 17.3 mph 24.2 mph N/A   Clear
12:15 PM 48.2 °F - 28.4 °F 46% 30.21 in 10.0 mi NNE 17.3 mph 25.3 mph N/A   Clear
12:55 PM 48.2 °F - 26.6 °F 43% 30.24 in 10.0 mi NNE 16.1 mph 21.9 mph N/A   Clear
1:15 PM 48.2 °F - 26.6 °F 43% 30.23 in 10.0 mi NNE 16.1 mph 20.7 mph N/A   Clear
1:35 PM 50.0 °F - 26.6 °F 40% 30.23 in 10.0 mi North 16.1 mph 21.9 mph N/A   Clear
1:55 PM 50.0 °F - 24.8 °F 37% 30.24 in 10.0 mi NNE 17.3 mph 21.9 mph N/A   Clear
2:15 PM 51.8 °F - 24.8 °F 35% 30.24 in 10.0 mi NNE 17.3 mph - N/A   Clear
2:35 PM 51.8 °F - 24.8 °F 35% 30.25 in 10.0 mi North 17.3 mph 21.9 mph N/A   Clear
2:55 PM 51.8 °F - 24.8 °F 35% 30.25 in 10.0 mi North 17.3 mph 23.0 mph N/A   Clear
3:15 PM 51.8 °F - 26.6 °F 38% 30.25 in 10.0 mi NNW 19.6 mph - N/A   Clear
3:55 PM 51.8 °F - 26.6 °F 38% 30.26 in 10.0 mi North 17.3 mph 24.2 mph N/A   Clear
4:15 PM 51.8 °F - 26.6 °F 38% 30.25 in 10.0 mi North 13.8 mph 20.7 mph N/A   Clear
4:35 PM 50.0 °F - 26.6 °F 40% 30.25 in 10.0 mi North 15.0 mph 20.7 mph N/A   Clear
5:15 PM 50.0 °F - 26.6 °F 40% 30.26 in 10.0 mi NNE 13.8 mph 18.4 mph N/A   Clear
5:35 PM 48.2 °F - 26.6 °F 43% 30.27 in 10.0 mi North 15.0 mph - N/A   Clear
5:55 PM 48.2 °F - 26.6 °F 43% 30.27 in 10.0 mi North 10.4 mph - N/A   Clear
6:15 PM 48.2 °F - 26.6 °F 43% 30.27 in 10.0 mi North 10.4 mph - N/A   Clear
6:35 PM 46.4 °F 40.1 °F 26.6 °F 46% 30.28 in 10.0 mi NNE 15.0 mph - N/A   Clear
6:55 PM 46.4 °F 41.5 °F 24.8 °F 43% 30.29 in 10.0 mi NNE 10.4 mph - N/A   Clear
7:15 PM 44.6 °F 40.2 °F 24.8 °F 46% 30.30 in 10.0 mi North 8.1 mph - N/A   Clear
7:35 PM 42.8 °F 37.5 °F 24.8 °F 49% 30.31 in 10.0 mi North 9.2 mph - N/A   Clear
7:55 PM 42.8 °F 37.0 °F 23.0 °F 46% 30.33 in 10.0 mi NNE 10.4 mph - N/A   Clear
8:15 PM 41.0 °F 35.8 °F 23.0 °F 49% 30.34 in 10.0 mi NNE 8.1 mph - N/A   Clear
8:35 PM 41.0 °F 35.2 °F 21.2 °F 45% 30.35 in 10.0 mi NNE 9.2 mph - N/A   Clear
8:55 PM 39.2 °F 33.6 °F 21.2 °F 49% 30.36 in 10.0 mi NNE 8.1 mph - N/A   Clear
9:15 PM 39.2 °F 33.6 °F 23.0 °F 52% 30.36 in 10.0 mi North 8.1 mph - N/A   Clear
9:35 PM 37.4 °F 31.4 °F 21.2 °F 52% 30.36 in 10.0 mi North 8.1 mph - N/A   Clear
9:55 PM 37.4 °F 31.4 °F 23.0 °F 56% 30.37 in 10.0 mi North 8.1 mph - N/A   Clear
10:55 PM 35.6 °F 30.7 °F 21.2 °F 56% 30.39 in 10.0 mi North 5.8 mph - N/A   Clear
11:15 PM 33.8 °F 29.6 °F 21.2 °F 60% 30.39 in 10.0 mi NNE 4.6 mph - N/A   Clear
11:35 PM 35.6 °F 31.7 °F 21.2 °F 56% 30.40 in 10.0 mi NNE 4.6 mph - N/A   Clear
11:55 PM 35.6 °F 31.7 °F 21.2 °F 56% 30.40 in 10.0 mi North 4.6 mph - N/A   Clear